Flag for Germany Weather past 2 weeks in Lübeck, Schleswig-Holstein, Germany

Now
39 °F

Passing clouds.


Feels Like: 32 °F
Forecast: 35 / 37 °F
Wind: 10 mph from Southwest

Location: Luebeck-Blankensee

Current Time: Jan 28, 2015 at 7:32:39 AM

Latest Report: Jan 28, 2015 at 7:20 AM


Visibility: 4 mi

Pressure: 29.83 "Hg

Humidity: 93%

Dew point: 37 °F

Location of LübeckLocation

Historic Weather in Lübeck — Graph

°F

Lübeck temperature yesterday

Maximum temperature yesterday: 43 °F (at 1:50 PM)
Minimum temperature yesterday: 34 °F (at 9:50 PM)
Average temperature yesterday: 39 °F

Past Weeks' High & Low Weather Summary

 TemperatureHumidityPressure
High48 °F (Jan 13, 6:50 AM)100% (Jan 13, 5:50 PM)30.30 "Hg (Jan 13, 5:50 PM)
Low27 °F (Jan 23, 10:50 PM)66% (Jan 16, 7:20 AM)29.36 "Hg (Jan 15, 5:50 PM)
Average36 °F88%29.91 "Hg
* Reported Jan 12 9:50 PM — Jan 27 9:50 PM, Lübeck, Weather by CustomWeather, © 2014

Note: Actual official high and low records may vary slightly from our data, if they occured in-between our weather recording intervals... More about our weather records

Advertising

Lübeck weather history for previous 24 hours

 ConditionsComfort  
Time TempWeatherWind HumidityBarometerVisibility
9:50 PM
Jan 27
34 °FClear.6 mph100%30.04 "Hg5 mi
9:20 PM36 °FClear.6 mph93%30.04 "Hg10 mi
8:50 PM36 °FClear.6 mph93%30.04 "Hg10 mi
8:20 PM36 °FClear.6 mph87%30.04 "Hg10 mi
7:50 PM36 °FClear.6 mph87%30.04 "Hg10 mi
7:20 PM36 °FClear.5 mph87%30.04 "Hg10 mi
6:50 PM36 °FClear.3 mph87%30.04 "Hg10 mi
6:20 PM37 °FClear.3 mph81%30.04 "Hg10 mi
5:50 PM37 °FPassing clouds.3 mph81%30.01 "HgN/A
5:20 PM37 °FPassing clouds.5 mph81%30.01 "HgN/A
4:50 PM39 °FPassing clouds.6 mph75%30.01 "HgN/A
4:20 PM41 °FScattered clouds.5 mph76%30.01 "HgN/A
3:50 PM41 °FPassing clouds.6 mph76%30.01 "HgN/A
3:20 PM41 °FScattered clouds.7 mph76%29.98 "HgN/A
2:50 PM43 °FScattered clouds.8 mph71%29.98 "HgN/A
2:20 PM43 °FScattered clouds.7 mph71%29.98 "HgN/A
1:50 PM43 °FScattered clouds.8 mph71%29.98 "HgN/A
1:20 PM41 °FScattered clouds.8 mph76%29.95 "HgN/A
12:50 PM41 °FPassing clouds.8 mph76%29.95 "HgN/A
12:20 PM41 °FScattered clouds.8 mph81%29.95 "HgN/A
11:50 AM41 °FScattered clouds.8 mph81%29.95 "HgN/A
11:20 AM41 °FScattered clouds.7 mph81%29.95 "HgN/A
10:50 AM39 °FScattered clouds.6 mph81%29.95 "HgN/A
10:20 AM39 °FPassing clouds.7 mph81%29.95 "HgN/A
9:50 AM39 °FScattered clouds.8 mph81%29.95 "HgN/A
9:20 AM37 °FPassing clouds.8 mph87%29.95 "HgN/A
8:50 AM37 °FPassing clouds.7 mph87%29.92 "HgN/A
8:20 AM37 °FBroken clouds.7 mph87%29.92 "HgN/A
7:50 AM37 °FPassing clouds.7 mph87%29.92 "HgN/A
7:20 AM37 °FPassing clouds.6 mph87%29.92 "HgN/A
Weather by CustomWeather, © 2014

See weather overviewHow to use our weather pages